GW2381 Weather Reports


time (UTC)temp
C
wind
direction
speed
KPH
gust
KPH
rain 1hr
cm
rain 24hr
cm
rain mn
cm
humidity
%
barometer
mb
20260502185944 21 246 4.8 4.8 0.00 0.00 0.00 21 1016.8
20260502185440 21 285 3.2 3.2 0.00 0.00 0.00 20 1017.2
20260502184937 21 245 8.0 8.0 0.00 0.00 0.00 23 1017.1
20260502184432 21 223 3.2 3.2 0.00 0.00 0.00 20 1017.1
20260502183929 20 279 4.8 4.8 0.00 0.00 0.00 22 1017.4
20260502183425 21 261 4.8 4.8 0.00 0.00 0.00 24 1017.4
20260502182921 21 261 4.8 4.8 0.00 0.00 0.00 24 1017.6
20260502182416 20 251 4.8 8.0 0.00 0.00 0.00 21 1017.3
20260502181913 21 207 3.2 3.2 0.00 0.00 0.00 18 1017.4
20260502181411 20 128 1.6 1.6 0.00 0.00 0.00 20 1017.5
20260502180909 20 251 3.2 3.2 0.00 0.00 0.00 21 1017.6
20260502180406 20 219 3.2 4.8 0.00 0.00 0.00 21 1017.6
20260502170325 20 205 6.4 8.0 0.00 0.00 0.00 23 1017.8
20260502164312 18 257 0.0 1.6 0.00 0.00 0.00 29 1017.7
20260502163808 18 212 4.8 4.8 0.00 0.00 0.00 28 1017.6
20260502163304 18 234 0.0 1.6 0.00 0.00 0.00 26 1018.1
20260502162802 17 156 1.6 1.6 0.00 0.00 0.00 25 1017.8
20260502162259 17 271 0.0 0.0 0.00 0.00 0.00 27 1017.8
20260502161755 17 289 1.6 3.2 0.00 0.00 0.00 28 1017.7
20260502161252 17 289 1.6 3.2 0.00 0.00 0.00 29 1017.6
20260502160750 17 239 0.0 0.0 0.00 0.00 0.00 26 1017.7
20260502160249 17 262 1.6 1.6 0.00 0.00 0.00 29 1018.0
20260502152218 15 161 0.0 0.0 0.00 0.00 0.00 29 1017.7
20260502151715 15 246 1.6 1.6 0.00 0.00 0.00 31 1017.8
20260502151212 15 198 1.6 1.6 0.00 0.00 0.00 29 1017.8
20260502150710 15 202 0.0 0.0 0.00 0.00 0.00 32 1018.0
20260502150206 16 116 1.6 3.2 0.00 0.00 0.00 30 1018.1
20260502140130 13 99 1.6 1.6 0.00 0.00 0.00 35 1018.0
20260502130555 8 162 0.0 0.0 0.00 0.00 0.00 46 1017.5
20260502123538 5 142 0.0 1.6 0.00 0.00 0.00 54 1017.4
20260502123034 6 159 0.0 0.0 0.00 0.00 0.00 54 1017.4
20260502122531 6 124 0.0 0.0 0.00 0.00 0.00 54 1017.3
20260502122028 5 136 0.0 0.0 0.00 0.00 0.00 57 1017.3
20260502121526 5 133 0.0 0.0 0.00 0.00 0.00 56 1017.3
20260502121023 5 123 0.0 0.0 0.00 0.00 0.00 56 1017.2
20260502120519 6 119 0.0 0.0 0.00 0.00 0.00 55 1017.1
20260502115514 6 109 0.0 1.6 0.00 0.00 0.00 54 1017.2
20260502115009 6 113 1.6 1.6 0.00 0.00 0.00 53 1017.4
20260502114507 7 141 0.0 0.0 0.00 0.00 0.00 52 1017.2
20260502114003 7 141 0.0 0.0 0.00 0.00 0.00 50 1017.3
20260502113501 8 137 1.6 1.6 0.00 0.00 0.00 44 1017.4
20260502113000 8 112 1.6 1.6 0.00 0.00 0.00 47 1017.3
20260502112457 8 61 1.6 3.2 0.00 0.00 0.00 44 1017.2
20260502111954 8 43 1.6 1.6 0.00 0.00 0.00 46 1017.3
20260502111451 8 45 1.6 1.6 0.00 0.00 0.00 45 1017.2
20260502110949 8 49 1.6 1.6 0.00 0.00 0.00 46 1017.4
20260502110446 8 51 0.0 1.6 0.00 0.00 0.00 47 1017.2
20260502105943 8 52 1.6 1.6 0.00 0.00 0.00 46 1017.3
20260502105441 8 52 1.6 1.6 0.00 0.00 0.00 47 1017.3
20260502104939 8 53 1.6 1.6 0.00 0.00 0.00 49 1017.3
20260502104435 8 53 1.6 1.6 0.00 0.00 0.00 49 1016.9
20260502103932 8 56 1.6 1.6 0.00 0.00 0.00 49 1017.2
20260502103430 8 58 0.0 1.6 0.00 0.00 0.00 53 1017.4
20260502102927 8 58 0.0 0.0 0.00 0.00 0.00 54 1017.4
20260502102424 7 63 1.6 1.6 0.00 0.00 0.00 56 1017.6
20260502101921 7 71 1.6 1.6 0.00 0.00 0.00 57 1017.2
20260502101419 7 72 0.0 1.6 0.00 0.00 0.00 56 1017.3
20260502100917 7 72 1.6 1.6 0.00 0.00 0.00 56 1017.4
20260502100416 7 76 0.0 0.0 0.00 0.00 0.00 57 1017.3
20260502091350 8 98 1.6 1.6 0.00 0.00 0.00 55 1017.3
20260502090848 8 100 1.6 1.6 0.00 0.00 0.00 53 1017.2
20260502090344 7 101 1.6 1.6 0.00 0.00 0.00 54 1017.3
20260502071239 10 89 1.6 1.6 0.00 0.00 0.00 50 1016.9
20260502070737 10 91 0.0 0.0 0.00 0.00 0.00 52 1016.6
20260502070235 10 91 0.0 0.0 0.00 0.00 0.00 51 1017.1
20260502065733 10 101 1.6 1.6 0.00 0.00 0.00 50 1016.8
20260502065231 10 107 1.6 1.6 0.00 0.00 0.00 49 1016.9
20260502064729 10 107 0.0 0.0 0.00 0.00 0.00 50 1017.1
20260502064226 10 107 1.6 1.6 0.00 0.00 0.00 50 1017.2
20260502063724 10 108 1.6 1.6 0.00 0.00 0.00 50 1016.7
20260502063221 10 117 1.6 1.6 0.00 0.00 0.00 51 1017.1
20260502062718 10 177 1.6 1.6 0.00 0.00 0.00 50 1016.9
20260502062216 10 223 0.0 0.0 0.00 0.00 0.00 50 1017.1
20260502061714 10 231 0.0 0.0 0.00 0.00 0.00 50 1017.1
20260502061210 10 216 1.6 1.6 0.00 0.00 0.00 50 1017.1
20260502060701 10 231 0.0 0.0 0.00 0.00 0.00 50 1016.8
20260502060157 10 246 1.6 3.2 0.00 0.00 0.00 49 1016.9
20260502055655 10 263 1.6 1.6 0.00 0.00 0.00 47 1016.8
20260502055153 10 263 0.0 1.6 0.00 0.00 0.00 48 1016.7
20260502054652 11 263 0.0 0.0 0.00 0.00 0.00 47 1016.8
20260502054149 11 263 0.0 0.0 0.00 0.00 0.00 44 1016.7
20260502053646 11 257 1.6 1.6 0.00 0.00 0.00 45 1016.7
20260502053143 11 214 0.0 0.0 0.00 0.00 0.00 46 1016.7
20260502052641 11 214 0.0 1.6 0.00 0.00 0.00 46 1017.1
20260502052139 11 214 0.0 0.0 0.00 0.00 0.00 46 1016.7
20260502051637 11 202 0.0 0.0 0.00 0.00 0.00 44 1016.8
20260502051135 11 194 0.0 1.6 0.00 0.00 0.00 44 1016.9
20260502050631 10 205 0.0 1.6 0.00 0.00 0.00 46 1016.9
20260502050127 11 213 0.0 1.6 0.00 0.00 0.00 47 1016.7
20260502045624 11 218 0.0 0.0 0.00 0.00 0.00 44 1017.1
20260502045122 11 218 0.0 0.0 0.00 0.00 0.00 46 1016.7
20260502044617 11 218 0.0 0.0 0.00 0.00 0.00 47 1016.7
20260502044115 11 217 0.0 0.0 0.00 0.00 0.00 46 1016.9
20260502043612 12 207 0.0 1.6 0.00 0.00 0.00 44 1016.6
20260502043108 12 225 0.0 0.0 0.00 0.00 0.00 44 1016.5
20260502042603 12 221 0.0 0.0 0.00 0.00 0.00 46 1017.1
20260502042101 12 146 0.0 0.0 0.00 0.00 0.00 43 1016.6
20260502041558 12 157 0.0 1.6 0.00 0.00 0.00 44 1016.6
20260502041055 12 176 1.6 1.6 0.00 0.00 0.00 45 1016.5
20260502040551 13 206 3.2 3.2 0.00 0.00 0.00 44 1016.6
20260502040049 12 240 0.0 1.6 0.00 0.00 0.00 46 1016.3
20260502035545 12 252 1.6 1.6 0.00 0.00 0.00 47 1016.6
20260502035042 12 304 1.6 1.6 0.00 0.00 0.00 47 1016.3
20260502034540 12 290 0.0 0.0 0.00 0.00 0.00 49 1016.1
20260502034038 12 290 0.0 0.0 0.00 0.00 0.00 48 1016.4
20260502033536 12 285 0.0 0.0 0.00 0.00 0.00 47 1016.3
20260502033033 12 284 0.0 0.0 0.00 0.00 0.00 48 1016.4
20260502032529 12 284 0.0 0.0 0.00 0.00 0.00 47 1015.9
20260502032026 12 284 0.0 0.0 0.00 0.00 0.00 48 1016.1
20260502031524 13 284 0.0 0.0 0.00 0.00 0.00 47 1016.1
20260502031022 13 284 0.0 1.6 0.00 0.00 0.00 46 1015.6
20260502030520 13 283 0.0 0.0 0.00 0.00 0.00 45 1015.8
20260502030018 13 279 0.0 0.0 0.00 0.00 0.00 46 1015.7
20260502025515 13 279 0.0 1.6 0.00 0.00 0.00 45 1015.8
20260502025013 13 280 0.0 0.0 0.00 0.00 0.00 45 1015.6
20260502024510 14 285 0.0 0.0 0.00 0.00 0.00 43 1015.7
20260502024009 14 284 1.6 3.2 0.00 0.00 0.00 42 1015.5
20260502023506 15 274 0.0 1.6 0.00 0.00 0.00 41 1015.5
20260502023003 15 284 3.2 3.2 0.00 0.00 0.00 41 1015.6
20260502022459 15 258 0.0 1.6 0.00 0.00 0.00 38 1015.6
20260502021956 15 266 1.6 1.6 0.00 0.00 0.00 36 1015.6
20260502021454 15 276 1.6 1.6 0.00 0.00 0.00 36 1015.2
20260502020950 16 262 1.6 1.6 0.00 0.00 0.00 35 1015.4
20260502020449 16 264 1.6 1.6 0.00 0.00 0.00 34 1015.2
20260502015945 16 256 1.6 3.2 0.00 0.00 0.00 35 1015.4
20260502015443 16 267 3.2 4.8 0.00 0.00 0.00 34 1015.1
20260502014939 16 264 1.6 1.6 0.00 0.00 0.00 36 1015.2
20260502014436 16 233 4.8 4.8 0.00 0.00 0.00 35 1015.2
20260502013933 17 248 6.4 8.0 0.00 0.00 0.00 34 1015.4
20260502013428 17 265 4.8 8.0 0.00 0.00 0.00 33 1015.1
20260502012925 17 268 6.4 9.7 0.00 0.00 0.00 31 1015.2
20260502012423 17 255 6.4 9.7 0.00 0.00 0.00 30 1015.1
20260502011920 17 294 6.4 8.0 0.00 0.00 0.00 29 1015.0
20260502011416 17 288 6.4 8.0 0.00 0.00 0.00 30 1015.0
20260502010913 17 251 4.8 4.8 0.00 0.00 0.00 33 1015.4
20260502010410 18 257 4.8 4.8 0.00 0.00 0.00 31 1015.4
20260502005906 18 257 1.6 3.2 0.00 0.00 0.00 33 1015.1
20260502005404 18 262 4.8 8.0 0.00 0.00 0.00 32 1015.0
20260502004902 18 271 8.0 9.7 0.00 0.00 0.00 33 1015.0
20260502004357 18 252 6.4 8.0 0.00 0.00 0.00 33 1015.2
20260502003855 18 263 4.8 8.0 0.00 0.00 0.00 25 1015.1
20260502003352 18 36 4.8 4.8 0.00 0.00 0.00 26 1015.1
20260502002848 18 272 1.6 3.2 0.00 0.00 0.00 28 1015.1
20260502002346 18 279 11.3 16.1 0.00 0.00 0.00 25 1015.2
20260502001843 18 296 8.0 9.7 0.00 0.00 0.00 24 1014.9
20260502001340 18 259 6.4 8.0 0.00 0.00 0.00 24 1015.2
20260502000838 18 271 11.3 12.9 0.00 0.00 0.00 23 1015.2
20260502000336 19 276 8.0 9.7 0.00 0.00 0.00 24 1015.1
20260501235832 18 310 8.0 9.7 0.00 0.00 0.00 26 1015.2
20260501235328 18 286 9.7 11.3 0.00 0.00 0.00 26 1015.4
20260501234823 18 283 12.9 14.5 0.00 0.00 0.00 25 1015.2
20260501234320 18 330 11.3 12.9 0.00 0.00 0.00 25 1015.4
20260501233819 18 287 12.9 14.5 0.00 0.00 0.00 26 1015.7
20260501233316 18 295 9.7 14.5 0.00 0.00 0.00 26 1015.5
20260501232811 18 292 12.9 14.5 0.00 0.00 0.00 25 1015.5
20260501232309 18 254 6.4 8.0 0.00 0.00 0.00 27 1015.6
20260501231806 18 308 11.3 14.5 0.00 0.00 0.00 27 1015.7
20260501231304 18 319 11.3 14.5 0.00 0.00 0.00 26 1015.5
20260501230802 18 261 6.4 8.0 0.00 0.00 0.00 27 1015.5
20260501230300 18 257 11.3 12.9 0.00 0.00 0.00 26 1015.5
20260501225758 18 309 6.4 9.7 0.00 0.00 0.00 27 1015.6
20260501225256 18 298 11.3 16.1 0.00 0.00 0.00 26 1015.7
20260501224751 18 198 6.4 9.7 0.00 0.00 0.00 27 1015.7
20260501224249 18 260 11.3 16.1 0.00 0.00 0.00 26 1015.6
20260501223744 18 232 8.0 11.3 0.00 0.00 0.00 27 1015.6
20260501223241 18 289 14.5 17.7 0.00 0.00 0.00 25 1015.8
20260501222737 18 237 12.9 16.1 0.00 0.00 0.00 26 1015.8
20260501222235 18 288 9.7 11.3 0.00 0.00 0.00 27 1015.9
20260501221732 18 318 12.9 16.1 0.00 0.00 0.00 27 1015.8
20260501221229 18 289 17.7 24.1 0.00 0.00 0.00 26 1016.0
20260501220726 18 333 16.1 20.9 0.00 0.00 0.00 25 1016.0
20260501220223 18 280 8.0 9.7 0.00 0.00 0.00 26 1016.1
20260501215721 17 281 12.9 16.1 0.00 0.00 0.00 28 1015.9
20260501215216 18 267 6.4 8.0 0.00 0.00 0.00 27 1016.1
20260501214711 18 277 14.5 16.1 0.00 0.00 0.00 26 1016.1
20260501214207 17 257 8.0 11.3 0.00 0.00 0.00 29 1016.1
20260501213704 17 270 8.0 12.9 0.00 0.00 0.00 28 1016.4
20260501213200 17 313 12.9 14.5 0.00 0.00 0.00 28 1016.4
20260501212656 17 273 17.7 24.1 0.00 0.00 0.00 28 1016.4
20260501212153 18 293 19.3 24.1 0.00 0.00 0.00 27 1016.4
20260501211650 17 248 11.3 16.1 0.00 0.00 0.00 28 1016.4
20260501211147 17 268 8.0 11.3 0.00 0.00 0.00 28 1016.6
20260501210644 17 299 22.5 29.0 0.00 0.00 0.00 28 1016.6
20260501210141 17 234 4.8 11.3 0.00 0.00 0.00 31 1016.6
20260501205637 18 301 9.7 11.3 0.00 0.00 0.00 28 1016.6
20260501205135 18 293 6.4 9.7 0.00 0.00 0.00 28 1016.6
20260501204631 17 248 8.0 12.9 0.00 0.00 0.00 29 1016.5
20260501204127 17 252 11.3 12.9 0.00 0.00 0.00 28 1016.6
20260501203624 17 281 12.9 14.5 0.00 0.00 0.00 28 1016.5
20260501203121 18 246 6.4 8.0 0.00 0.00 0.00 28 1016.7
20260501202618 17 309 12.9 22.5 0.00 0.00 0.00 28 1016.7
20260501202115 17 305 8.0 14.5 0.00 0.00 0.00 30 1016.7
20260501201612 17 265 9.7 11.3 0.00 0.00 0.00 31 1016.7
20260501201108 18 314 9.7 11.3 0.00 0.00 0.00 31 1016.5
20260501200605 17 265 11.3 16.1 0.00 0.00 0.00 29 1016.6
20260501200103 18 233 9.7 11.3 0.00 0.00 0.00 29 1016.7
20260501195600 17 278 3.2 4.8 0.00 0.00 0.00 33 1016.8
20260501195055 17 250 12.9 17.7 0.00 0.00 0.00 30 1016.6
20260501194551 17 244 8.0 9.7 0.00 0.00 0.00 32 1016.5
20260501194047 17 254 4.8 8.0 0.00 0.00 0.00 30 1016.9
20260501193545 17 261 14.5 17.7 0.00 0.00 0.00 30 1016.8
20260501193043 17 224 6.4 8.0 0.00 0.00 0.00 31 1016.9
20260501192540 17 247 3.2 3.2 0.00 0.00 0.00 33 1017.2
20260501192038 17 214 9.7 11.3 0.00 0.00 0.00 30 1017.1
20260501191534 17 268 6.4 8.0 0.00 0.00 0.00 33 1017.2
20260501191032 17 229 8.0 9.7 0.00 0.00 0.00 31 1017.2
20260501190527 17 277 6.4 8.0 0.00 0.00 0.00 29 1017.3